Location: アルンシュタイン
(50.0000°N, 10.0000°E)
Time: 06:20:27
(UTC+01:00)

Envisat - Pass Details

Date: 01 November 2021
Orbit: 764 x 766 km, 98.2° (Epoch: 04 December)

Event Time Altitude Azimuth Distance (km) Brightness Sun altitude
Rises 05:18:25 0° 16° (NNE) 3,245 6.4 -18.3°
Reaches altitude 10° 05:20:46 10° 20° (NNE) 2,314 5.7 -17.9°
Maximum altitude 05:25:50 63° 101° (ESE) 857 3.5 -17.1°
Drops below altitude 10° 05:30:51 10° 183° (S) 2,296 5.5 -16.3°
Sets 05:33:10 0° 186° (S) 3,217 6.2 -15.9°
